ENGINEERING TRACK TESTING
Weather & Rail Temperature Monitoring

Weather station READ

Transfer Interlocking (Readville MA)

Measurement History

Home Current History Weekly graphs

,

to download data from the start of , to the end of ,

Conditions for past 24 hours (since 09/01/2026 01:29 AM)

Time Track 1 N rail Track 1 S rail Track 2 N rail Track 2 S rail Outside Air
Temperature
Solar
Radiation
Max. Wind Humidity Air Pressure Rain
SpeedDir
09/02/2026 01:15 AM 61 °F 59 °F 61 °F 61 °F 62.1 °F 0 watt/m2 0 mph --- 31 % 30.196 in Hg 0 in
09/02/2026 01:00 AM 62 °F 58 °F 61 °F 61 °F 62 °F 0 watt/m2 0 mph --- 31 % 30.201 in Hg 0 in
09/02/2026 12:45 AM 62 °F 59 °F 62 °F 61 °F 62 °F 0 watt/m2 0 mph --- 31 % 30.198 in Hg 0 in
09/02/2026 12:30 AM 62 °F 55 °F 62 °F 62 °F 62.2 °F 0 watt/m2 0 mph --- 31 % 30.187 in Hg 0 in
09/02/2026 12:15 AM 62 °F 25 °F 62 °F 62 °F 62.5 °F 0 watt/m2 0 mph --- 31 % 30.175 in Hg 0 in
09/02/2026 12:00 AM 61 °F 25 °F 62 °F 62 °F 62.8 °F 0 watt/m2 0 mph --- 31 % 30.171 in Hg 0 in
09/01/2026 11:45 PM 62 °F 27 °F 62 °F 62 °F 63 °F 0 watt/m2 0 mph --- 31 % 30.167 in Hg 0 in
09/01/2026 11:30 PM 62 °F 27 °F 63 °F 62 °F 63.1 °F 0 watt/m2 0 mph --- 31 % 30.167 in Hg 0 in
09/01/2026 11:15 PM 62 °F 27 °F 63 °F 62 °F 63 °F 0 watt/m2 0 mph --- 31 % 30.168 in Hg 0 in
09/01/2026 11:00 PM 62 °F 27 °F 62 °F 62 °F 62.9 °F 0 watt/m2 0 mph --- 31 % 30.167 in Hg 0 in
09/01/2026 10:45 PM 63 °F 27 °F 62 °F 62 °F 63 °F 0 watt/m2 0 mph --- 31 % 30.166 in Hg 0 in
09/01/2026 10:30 PM 63 °F 62 °F 63 °F 63 °F 63 °F 0 watt/m2 0 mph --- 30 % 30.171 in Hg 0 in
09/01/2026 10:15 PM 63 °F 63 °F 63 °F 63 °F 63.1 °F 0 watt/m2 0 mph --- 30 % 30.166 in Hg 0 in
09/01/2026 10:00 PM 63 °F 32 °F 63 °F 63 °F 63.4 °F 0 watt/m2 0 mph --- 30 % 30.168 in Hg 0 in
09/01/2026 09:45 PM 63 °F 42 °F 63 °F 63 °F 63.5 °F 0 watt/m2 0 mph --- 30 % 30.168 in Hg 0 in
09/01/2026 09:30 PM 63 °F 40 °F 63 °F 63 °F 63.8 °F 0 watt/m2 0 mph --- 30 % 30.166 in Hg 0 in
09/01/2026 09:15 PM 64 °F 64 °F 64 °F 64 °F 63.9 °F 0 watt/m2 0 mph --- 30 % 30.162 in Hg 0 in
09/01/2026 09:00 PM 64 °F 64 °F 64 °F 64 °F 64.1 °F 0 watt/m2 0 mph --- 30 % 30.164 in Hg 0 in
09/01/2026 08:45 PM 64 °F 64 °F 64 °F 64 °F 64.2 °F 0 watt/m2 0 mph --- 30 % 30.159 in Hg 0 in
09/01/2026 08:30 PM 65 °F 64 °F 64 °F 64 °F 64.4 °F 0 watt/m2 0 mph --- 30 % 30.15 in Hg 0 in
09/01/2026 08:15 PM 65 °F 65 °F 65 °F 65 °F 64.5 °F 0 watt/m2 0 mph --- 30 % 30.151 in Hg 0 in
09/01/2026 08:00 PM 65 °F 65 °F 65 °F 65 °F 64.7 °F 0 watt/m2 0 mph --- 30 % 30.152 in Hg 0 in
09/01/2026 07:45 PM 65 °F 65 °F 65 °F 65 °F 64.9 °F 0 watt/m2 0 mph --- 29 % 30.151 in Hg 0 in
09/01/2026 07:30 PM 65 °F 65 °F 65 °F 65 °F 65.1 °F 0 watt/m2 0 mph --- 29 % 30.147 in Hg 0 in
09/01/2026 07:15 PM 66 °F 66 °F 66 °F 66 °F 65.2 °F 6 watt/m2 0 mph --- 29 % 30.147 in Hg 0 in
09/01/2026 07:00 PM 66 °F 66 °F 66 °F 66 °F 65.2 °F 19 watt/m2 0 mph --- 29 % 30.139 in Hg 0 in
09/01/2026 06:45 PM 66 °F 66 °F 67 °F 67 °F 65.4 °F 31 watt/m2 0 mph --- 29 % 30.141 in Hg 0 in
09/01/2026 06:30 PM 66 °F 67 °F 67 °F 67 °F 65.3 °F 29 watt/m2 0 mph --- 29 % 30.139 in Hg 0 in
09/01/2026 06:15 PM 67 °F 67 °F 67 °F 67 °F 65.4 °F 37 watt/m2 0 mph --- 29 % 30.142 in Hg 0 in
09/01/2026 06:00 PM 67 °F 62 °F 68 °F 68 °F 65.6 °F 33 watt/m2 0 mph --- 29 % 30.144 in Hg 0 in
09/01/2026 05:45 PM 68 °F 66 °F 68 °F 68 °F 66 °F 58 watt/m2 0 mph --- 29 % 30.144 in Hg 0 in
09/01/2026 05:30 PM 68 °F 66 °F 68 °F 68 °F 66.3 °F 85 watt/m2 0 mph --- 29 % 30.138 in Hg 0 in
09/01/2026 05:15 PM 68 °F 66 °F 68 °F 69 °F 66.4 °F 82 watt/m2 0 mph --- 29 % 30.14 in Hg 0 in
09/01/2026 05:00 PM 68 °F 66 °F 68 °F 69 °F 66.7 °F 107 watt/m2 0 mph --- 29 % 30.133 in Hg 0 in
09/01/2026 04:45 PM 68 °F 68 °F 68 °F 69 °F 66.8 °F 140 watt/m2 0 mph --- 29 % 30.129 in Hg 0 in
09/01/2026 04:30 PM 68 °F 68 °F 68 °F 68 °F 66.2 °F 135 watt/m2 0 mph --- 29 % 30.123 in Hg 0 in
09/01/2026 04:15 PM 67 °F 67 °F 68 °F 68 °F 65.8 °F 101 watt/m2 0 mph --- 29 % 30.121 in Hg 0 in
09/01/2026 04:00 PM 67 °F 59 °F 68 °F 68 °F 65.7 °F 104 watt/m2 0 mph --- 29 % 30.119 in Hg 0 in
09/01/2026 03:45 PM 68 °F 38 °F 68 °F 68 °F 66.1 °F 93 watt/m2 0 mph --- 28 % 30.12 in Hg 0.02 in
09/01/2026 03:30 PM 69 °F 62 °F 69 °F 69 °F 66.5 °F 102 watt/m2 0 mph --- 28 % 30.122 in Hg 0.01 in
09/01/2026 03:15 PM 69 °F 31 °F 69 °F 69 °F 66.8 °F 96 watt/m2 0 mph --- 28 % 30.121 in Hg 0 in
09/01/2026 03:00 PM 69 °F 69 °F 70 °F 70 °F 67.6 °F 96 watt/m2 0 mph --- 28 % 30.118 in Hg 0 in
09/01/2026 02:45 PM 70 °F 70 °F 70 °F 70 °F 68.4 °F 126 watt/m2 0 mph --- 28 % 30.114 in Hg 0 in
09/01/2026 02:30 PM 70 °F 70 °F 70 °F 71 °F 69.2 °F 106 watt/m2 0 mph --- 28 % 30.109 in Hg 0.01 in
09/01/2026 02:15 PM 70 °F 70 °F 71 °F 71 °F 69.6 °F 102 watt/m2 0 mph --- 28 % 30.105 in Hg 0.01 in
09/01/2026 02:00 PM 70 °F 70 °F 71 °F 71 °F 69.7 °F 88 watt/m2 0 mph --- 27 % 30.102 in Hg 0.01 in
09/01/2026 01:45 PM 71 °F 70 °F 72 °F 72 °F 70.1 °F 73 watt/m2 0 mph --- 28 % 30.095 in Hg 0.02 in
09/01/2026 01:30 PM 72 °F 33 °F 73 °F 73 °F 70.7 °F 22 watt/m2 0 mph --- 27 % 30.096 in Hg 0.03 in
09/01/2026 01:15 PM 73 °F 34 °F 74 °F 75 °F 71.2 °F 42 watt/m2 0 mph --- 27 % 30.091 in Hg 0.02 in
09/01/2026 01:00 PM 75 °F 43 °F 76 °F 76 °F 71.4 °F 41 watt/m2 0 mph --- 27 % 30.092 in Hg 0 in
09/01/2026 12:45 PM 76 °F 76 °F 77 °F 77 °F 71.7 °F 60 watt/m2 0 mph --- 27 % 30.096 in Hg 0 in
09/01/2026 12:30 PM 77 °F 76 °F 77 °F 77 °F 71.8 °F 99 watt/m2 0 mph --- 28 % 30.09 in Hg 0 in
09/01/2026 12:15 PM 77 °F 77 °F 78 °F 78 °F 71.6 °F 105 watt/m2 0 mph --- 28 % 30.088 in Hg 0 in
09/01/2026 12:00 PM 78 °F 77 °F 78 °F 78 °F 71.8 °F 198 watt/m2 0 mph --- 29 % 30.092 in Hg 0 in
09/01/2026 11:45 AM 78 °F 77 °F 78 °F 78 °F 71.6 °F 350 watt/m2 0 mph --- 29 % 30.094 in Hg 0 in
09/01/2026 11:30 AM 77 °F 32 °F 77 °F 77 °F 71.1 °F 320 watt/m2 0 mph --- 30 % 30.1 in Hg 0 in
09/01/2026 11:15 AM 75 °F 36 °F 75 °F 75 °F 70.5 °F 276 watt/m2 0 mph --- 30 % 30.105 in Hg 0 in
09/01/2026 11:00 AM 74 °F 74 °F 74 °F 74 °F 70.1 °F 275 watt/m2 0 mph --- 30 % 30.109 in Hg 0 in
09/01/2026 10:45 AM 73 °F 72 °F 72 °F 72 °F 69.9 °F 198 watt/m2 0 mph --- 30 % 30.113 in Hg 0 in
09/01/2026 10:30 AM 72 °F 31 °F 72 °F 72 °F 69.9 °F 196 watt/m2 0 mph --- 30 % 30.116 in Hg 0 in
09/01/2026 10:15 AM 71 °F 50 °F 71 °F 71 °F 69.5 °F 240 watt/m2 0 mph --- 30 % 30.121 in Hg 0 in
09/01/2026 10:00 AM 69 °F 69 °F 69 °F 69 °F 68.8 °F 196 watt/m2 0 mph --- 30 % 30.119 in Hg 0.01 in
09/01/2026 09:45 AM 68 °F 68 °F 68 °F 68 °F 68.2 °F 106 watt/m2 0 mph --- 30 % 30.121 in Hg 0.01 in
09/01/2026 09:30 AM 68 °F 68 °F 67 °F 67 °F 68.1 °F 55 watt/m2 0 mph --- 29 % 30.124 in Hg 0 in
09/01/2026 09:15 AM 67 °F 67 °F 67 °F 67 °F 68 °F 51 watt/m2 0 mph --- 29 % 30.124 in Hg 0.01 in
09/01/2026 09:00 AM 67 °F 67 °F 67 °F 67 °F 67.9 °F 42 watt/m2 0 mph --- 29 % 30.12 in Hg 0.04 in
09/01/2026 08:45 AM 67 °F 67 °F 67 °F 67 °F 67.9 °F 16 watt/m2 0 mph --- 29 % 30.122 in Hg 0 in
09/01/2026 08:30 AM 67 °F 67 °F 67 °F 67 °F 67.9 °F 21 watt/m2 0 mph --- 29 % 30.12 in Hg 0 in
09/01/2026 08:15 AM 67 °F 67 °F 67 °F 67 °F 67.8 °F 26 watt/m2 0 mph --- 29 % 30.119 in Hg 0 in
09/01/2026 08:00 AM 67 °F 67 °F 66 °F 66 °F 67.8 °F 26 watt/m2 0 mph --- 29 % 30.12 in Hg 0 in
09/01/2026 07:45 AM 67 °F 67 °F 66 °F 66 °F 67.7 °F 25 watt/m2 0 mph --- 28 % 30.117 in Hg 0 in
09/01/2026 07:30 AM 66 °F 66 °F 66 °F 66 °F 67.7 °F 23 watt/m2 0 mph --- 28 % 30.114 in Hg 0 in
09/01/2026 07:15 AM 66 °F 66 °F 66 °F 66 °F 67.5 °F 27 watt/m2 0 mph --- 28 % 30.11 in Hg 0 in
09/01/2026 07:00 AM 66 °F 66 °F 66 °F 66 °F 67.4 °F 18 watt/m2 0 mph --- 28 % 30.111 in Hg 0 in
09/01/2026 06:45 AM 66 °F 66 °F 66 °F 66 °F 67.4 °F 10 watt/m2 0 mph --- 28 % 30.111 in Hg 0 in
09/01/2026 06:30 AM 66 °F 66 °F 66 °F 66 °F 67.3 °F 1 watt/m2 0 mph --- 28 % 30.107 in Hg 0 in
09/01/2026 06:15 AM 66 °F 66 °F 66 °F 66 °F 67.2 °F 0 watt/m2 0 mph --- 28 % 30.103 in Hg 0 in
09/01/2026 06:00 AM 66 °F 66 °F 66 °F 66 °F 67.2 °F 0 watt/m2 0 mph --- 28 % 30.098 in Hg 0 in
09/01/2026 05:45 AM 66 °F 66 °F 66 °F 66 °F 67.2 °F 0 watt/m2 0 mph --- 28 % 30.1 in Hg 0 in
09/01/2026 05:30 AM 66 °F 66 °F 66 °F 66 °F 67.3 °F 0 watt/m2 0 mph --- 27 % 30.099 in Hg 0 in
09/01/2026 05:15 AM 66 °F 66 °F 66 °F 66 °F 67.4 °F 0 watt/m2 0 mph --- 27 % 30.1 in Hg 0 in
09/01/2026 05:00 AM 66 °F 66 °F 66 °F 66 °F 67.4 °F 0 watt/m2 0 mph --- 27 % 30.102 in Hg 0 in
09/01/2026 04:45 AM 67 °F 67 °F 66 °F 66 °F 67.6 °F 0 watt/m2 0 mph --- 27 % 30.104 in Hg 0 in
09/01/2026 04:30 AM 67 °F 67 °F 66 °F 66 °F 67.7 °F 0 watt/m2 0 mph --- 27 % 30.107 in Hg 0 in
09/01/2026 04:15 AM 67 °F 67 °F 67 °F 67 °F 67.8 °F 0 watt/m2 0 mph --- 27 % 30.113 in Hg 0 in
09/01/2026 04:00 AM 68 °F 67 °F 67 °F 67 °F 67.9 °F 0 watt/m2 0 mph --- 27 % 30.116 in Hg 0 in
09/01/2026 03:45 AM 68 °F 67 °F 67 °F 67 °F 67.9 °F 0 watt/m2 0 mph --- 27 % 30.121 in Hg 0 in
09/01/2026 03:30 AM 67 °F 68 °F 67 °F 67 °F 67.8 °F 0 watt/m2 0 mph --- 27 % 30.123 in Hg 0 in
09/01/2026 03:15 AM 67 °F 68 °F 67 °F 67 °F 67.8 °F 0 watt/m2 0 mph --- 27 % 30.123 in Hg 0 in
09/01/2026 03:00 AM 68 °F 64 °F 67 °F 67 °F 67.8 °F 0 watt/m2 0 mph --- 27 % 30.123 in Hg 0 in
09/01/2026 02:45 AM 68 °F 63 °F 67 °F 67 °F 67.8 °F 0 watt/m2 0 mph --- 27 % 30.126 in Hg 0 in
09/01/2026 02:30 AM 68 °F 59 °F 67 °F 67 °F 67.8 °F 0 watt/m2 0 mph --- 27 % 30.129 in Hg 0 in
09/01/2026 02:15 AM 68 °F 36 °F 68 °F 67 °F 67.7 °F 0 watt/m2 0 mph --- 27 % 30.123 in Hg 0 in
09/01/2026 02:00 AM 68 °F 59 °F 68 °F 68 °F 67.6 °F 0 watt/m2 0 mph --- 27 % 30.126 in Hg 0 in
09/01/2026 01:45 AM 68 °F 34 °F 68 °F 68 °F 67.7 °F 0 watt/m2 0 mph --- 27 % 30.127 in Hg 0 in
09/01/2026 01:30 AM 68 °F 33 °F 68 °F 68 °F 67.7 °F 0 watt/m2 0 mph --- 27 % 30.121 in Hg 0 in

Alarms Station information Line AB Subdivision BOSTON